Location: Mentone
(34.5413°N, 85.5351°W)
Time: 20:26:26
(UTC-05:00)

Cosmos 2150 Rocket - Visible Passes

Search period start: 26 May 2018 00:00
Search period end: 05 June 2018 00:00
Orbit: 749 x 809 km, 74.0° (Epoch: 26 May)

Date Brightness Start Highest point End Pass type
(mag) Time Alt. Az. Time Alt. Az. Time Alt. Az.
26 May 4.1 21:18:10 10° N 21:23:29 62° ENE 21:25:54 31° SE visible
26 May 6.4 23:02:56 10° WNW 23:05:05 12° W 23:06:25 11° WSW visible
27 May 4.8 20:44:34 10° N 20:49:32 37° ENE 20:53:01 17° SE visible
27 May 5.9 22:27:31 10° NW 22:31:30 22° W 22:33:31 17° SW visible
28 May 5.4 20:11:16 10° N 20:15:29 23° ENE 20:19:38 10° ESE visible
28 May 5.2 21:52:59 10° NW 21:57:49 36° W 22:00:40 21° SSW visible
29 May 4.4 21:18:49 10° NNW 21:24:04 61° WSW 21:27:52 18° S visible
30 May 4.0 20:44:54 10° NNW 20:50:15 80° ENE 20:55:06 12° SSE visible
31 May 4.4 20:11:11 10° N 20:16:20 48° ENE 20:21:22 10° SE visible
31 May 6.4 21:54:54 10° WNW 21:58:06 16° W 22:01:17 10° SW visible
01 Jun 5.8 21:20:02 10° NW 21:24:28 28° W 21:28:50 10° SSW visible
02 Jun 5.0 20:45:43 10° NNW 20:50:46 46° WSW 20:55:43 10° S visible
04 Jun 6.7 21:22:41 10° WNW 21:24:43 12° W 21:26:43 10° WSW visible
